User: anonymous   Login
Location: Brno
(49.2000°N, 16.6330°E)
Time: 08:30:52
(UTC+02:00)
Language:

Cosmos 2227 - Orbit

View from above orbital plane
View from above orbital plane
View from above satellite
View from above satellite

Ground track
Ground track

The orbit data is extracted from the following two-line orbital elements,

1 22284U 92093A   16177.81375876 -.00000229  00000-0 -96768-4 0  9993
2 22284  70.9807 262.5520 0020006 343.6523  16.3951 14.13266496212290
Epoch (UTC): 25 June 2016 19:31:48
Eccentricity: 0.0020006
inclination: 70.9807°
perigee height: 834 km
apogee height: 862 km
right ascension of ascending node: 262.5520°
argument of perigee: 343.6523°
revolutions per day: 14.13266496
mean anomaly at epoch: 16.3951°
orbit number at epoch: 21229

The dashed part of the orbit path shows where the satellite is in the earth's shadow,  

DLR